Terminal Aerodrome Forecast
Issued by NWS Springfield, MO

Home | Current Version | Previous Version | Text Only | Print | Product List | Glossary On
Versions: 1 2 3 4 5 6 7 8 9 10 11 12 13 14 15
000
FTUS43 KSGF 142000 AAA
TAFSGF
TAF AMD
KSGF 142051Z 1421/1518 33016G25KT P6SM OVC020
     FM142300 34008KT P6SM SKC
     FM150400 VRB05KT P6SM SKC
     FM151400 32007KT P6SM SKC=

USA.gov is the U.S. government's official web portal to all federal, state and local government web resources and services.